[[{"header":{"parameterUnit":"m.s-1","parameterCategory":1,"la1":30.2992,"la2":30.254,"lo1":-89.0895,"lo2":-89.0443,"dy":0.0025,"dx":0.0025,"nx":19,"ny":19,"refTime":"2026-05-08T21:00:00:Z","depth":0,"parameterNumber":2,"parameterNumberName":"U-component_of_WINDS"},"data":[0,0,0,-2.9111,-2.9112,-2.9205,-2.9205,-2.9324,-2.9325,0,0,0,0,0,0,0,0,0,0,0,-2.9084,-2.9085,-2.911,-2.9113,-2.9205,-2.9205,-2.9324,-2.9325,0,0,0,0,0,0,0,0,0,0,0,-2.9084,-2.9085,-2.9086,-2.9113,-2.9205,-2.9205,-2.9324,-2.9254,0,0,0,0,0,0,0,0,0,0,-2.9164,-2.9141,-2.9085,-2.9086,-2.9114,-2.9205,-2.9205,-2.925,-2.9258,-2.9283,0,-2.9305,0,-2.9317,-2.9333,-2.9334,0,0,0,-2.9112,-2.9134,-2.9158,-2.9086,-2.9114,-2.9204,-2.9163,-2.9254,-2.9263,-2.9293,-2.9307,-2.9312,-2.9319,-2.9334,-2.9334,-2.948,-2.9481,0,0,-2.9107,-2.9101,-2.9152,-2.9164,-2.915,-2.916,-2.9166,-2.926,-2.9275,-2.9308,-2.9314,-2.9321,-2.9335,-2.9336,-2.9479,-2.948,0,0,0,-2.9093,-2.9098,-2.9119,-2.9159,-2.9176,-2.9163,-2.9169,-2.9271,-2.9278,-2.9316,-2.9322,-2.9335,-2.9337,-2.9479,-2.948,-2.9509,0,0,0,-2.909,-2.909,-2.9117,-2.9115,-2.9174,-2.9224,-2.9178,-2.9271,-2.9282,-2.9322,-2.9335,-2.9338,-2.9478,-2.9479,-2.9506,-2.9523,0,0,0,-2.9078,-2.9088,-2.9102,-2.9114,-2.9154,-2.9223,-2.9236,-2.9274,-2.9287,-2.9334,-2.9338,-2.9477,-2.9479,-2.9504,-2.9519,-2.9558,0,0,0,-2.9064,-2.9128,-2.9102,-2.9176,-2.9153,-2.9241,-2.9235,-2.9301,-2.9345,-2.9336,-2.9478,-2.948,-2.9503,-2.9517,-2.9556,-2.9589,-2.9603,0,0,-2.9141,-2.9137,-2.9181,-2.9161,-2.9251,-2.9227,-2.9322,-2.9367,-2.9377,-2.9445,-2.9449,-2.9507,-2.9519,-2.9558,-2.9684,-2.9695,0,0,0,-2.9203,-2.9234,-2.926,-2.9301,-2.9337,-2.9369,-2.94,-2.9417,-2.9475,-2.9411,-2.9533,-2.954,-2.9563,-2.9579,-2.9588,-2.9607,-2.9487,-2.9487,-2.9487,-2.9304,-2.9313,-2.9385,-2.9404,-2.9444,-2.9476,-2.9509,-2.9536,-2.9534,-2.9563,-2.9582,-2.9658,-2.9676,-2.9683,-2.9703,-2.9602,-2.9602,-2.9602,-2.9602,-2.9417,-2.9462,-2.9456,-2.9524,-2.9532,-2.9589,-2.9622,-2.9618,-2.9672,-2.9644,-2.9665,-2.9632,-2.9695,-2.9713,-2.9604,-2.9604,-2.9604,-2.9604,-2.9603,-2.9483,-2.9506,-2.9525,-2.9584,-2.9629,-2.9646,-2.9698,-2.9704,-2.971,-2.9731,-2.9751,-2.9751,-2.9749,-2.974,-2.9741,-2.9741,-2.9741,-2.9741,-2.9742,-2.9543,-2.9564,-2.9606,-2.9649,-2.9675,-2.9711,-2.9743,-2.9769,-2.9799,-2.98,-2.98,-2.9793,-2.97,-2.9675,-2.9746,-2.9745,-2.9744,-2.9744,-2.9744,-2.9652,-2.9628,-2.9694,-2.972,-2.977,-2.9813,-2.982,-2.9873,-2.9895,-2.992,-2.9909,-2.984,-2.9836,-2.9829,-2.9808,-2.9908,-2.9908,-2.9908,-2.9908,-2.9707,-2.9705,-2.9773,-2.9814,-2.9855,-2.9868,-2.994,-2.9965,-2.9987,-3.0001,-2.9988,-2.9962,-2.9955,-2.9955,-2.9945,-2.9926,-3.0054,-3.0054,-3.0054,-2.9773,-2.9776,-2.9836,-2.9857,-2.9896,-2.9929,-2.9997,-3.0044,-3.0064,-3.006,-3.0012,-3.0006,-2.9964,-2.9951,-2.9944,-2.9928,-2.9893,0,0]},{"header":{"parameterUnit":"m.s-1","parameterCategory":1,"la1":30.2992,"la2":30.254,"lo1":-89.0895,"lo2":-89.0443,"dy":0.0025,"dx":0.0025,"nx":19,"ny":19,"refTime":"2026-05-08T21:00:00:Z","depth":0,"parameterNumber":3,"parameterNumberName":"V-component_of_WINDS"},"data":[0,0,0,4.0308,4.0313,4.0534,4.0535,4.0809,4.0811,0,0,0,0,0,0,0,0,0,0,0,4.0239,4.0241,4.0308,4.0313,4.0534,4.0535,4.0808,4.0811,0,0,0,0,0,0,0,0,0,0,0,4.0238,4.024,4.0243,4.0314,4.0534,4.0535,4.0808,4.0643,0,0,0,0,0,0,0,0,0,0,4.043,4.0364,4.024,4.0243,4.0315,4.0534,4.0535,4.0636,4.0654,4.0706,0,4.0753,0,4.0787,4.0829,4.083,0,0,0,4.0315,4.0349,4.0412,4.0243,4.0317,4.0533,4.0435,4.0646,4.0666,4.0729,4.0757,4.0767,4.0791,4.0831,4.0832,4.1132,4.1133,0,0,4.0302,4.0277,4.0398,4.0425,4.0393,4.0428,4.0442,4.0658,4.0685,4.0758,4.0774,4.0796,4.0833,4.0835,4.1131,4.1132,0,0,0,4.0266,4.0268,4.0326,4.0414,4.0454,4.0434,4.045,4.0676,4.0697,4.0777,4.0799,4.0834,4.0838,4.1129,4.1131,4.1173,0,0,0,4.0259,4.0247,4.032,4.0307,4.045,4.0568,4.0462,4.0682,4.0707,4.0797,4.0834,4.084,4.1128,4.113,4.1169,4.1196,0,0,0,4.0226,4.0243,4.0274,4.0305,4.0399,4.0565,4.0599,4.0688,4.0721,4.083,4.0841,4.1127,4.113,4.1165,4.119,4.1269,0,0,0,4.0182,4.0306,4.0274,4.0422,4.0397,4.059,4.0598,4.0742,4.0841,4.0836,4.1128,4.1131,4.1164,4.1187,4.1265,4.133,4.1355,0,0,4.0324,4.0322,4.0411,4.0389,4.0582,4.0559,4.0757,4.087,4.0902,4.1053,4.1061,4.117,4.119,4.1268,4.1504,4.1524,0,0,0,4.0447,4.0511,4.0568,4.0662,4.0754,4.0835,4.0921,4.0963,4.1093,4.0976,4.122,4.1233,4.128,4.1312,4.1329,4.1371,4.1145,4.1145,4.1144,4.061,4.0648,4.0798,4.0863,4.0954,4.1043,4.112,4.1192,4.1201,4.1258,4.1303,4.1442,4.148,4.1492,4.1536,4.1341,4.1341,4.1341,4.1341,4.0822,4.0918,4.093,4.108,4.1118,4.1243,4.1334,4.1337,4.1458,4.1411,4.1454,4.14,4.1513,4.1553,4.1345,4.1344,4.1344,4.1343,4.1343,4.0933,4.0986,4.1037,4.1179,4.1284,4.1344,4.1461,4.1491,4.152,4.1563,4.1614,4.1613,4.1616,4.1585,4.1586,4.1586,4.1586,4.1587,4.1587,4.1028,4.1085,4.1181,4.129,4.1356,4.1446,4.1538,4.1602,4.1681,4.1694,4.1694,4.1698,4.1517,4.1471,4.1595,4.1593,4.1592,4.1592,4.1591,4.1228,4.1189,4.1337,4.1403,4.1534,4.1637,4.1675,4.1804,4.1862,4.1918,4.1914,4.1775,4.1775,4.1762,4.1724,4.1905,4.1905,4.1905,4.1905,4.1322,4.1326,4.1485,4.1589,4.1694,4.1744,4.1909,4.1982,4.205,4.2088,4.2067,4.2019,4.2004,4.2013,4.1994,4.1959,4.2196,4.2197,4.2197,4.1448,4.1464,4.1599,4.1668,4.1774,4.1863,4.202,4.2137,4.2206,4.2209,4.2119,4.2107,4.203,4.2003,4.2003,4.1974,4.1911,0,0]}]]